When you browse on this site, cookies collect data to enhance your experience and personalize the content and advertising you see.
Visit our Privacy Policy to learn more. By continuing to use the site, you agree to this use of cookies and data.
  • In Sweden
  • List of Countries
  • For 7 days
  • Water Temperature
  • Satellite Maps
  • Weather Map
  • Weather Widgets
  • user-avatar
    Login

    Hourly Weather Baní

    Today, 18 July, Thursday

    Time Temperature Precipitation Wind Pressure Humidity
    00:00 +25°C° 0 mm 4 mps 758 mmHg 90%
    01:00 +25°C° 0 mm 4 mps 758 mmHg 90%
    02:00 +25°C° 0 mm 4 mps 758 mmHg 91%
    03:00 +25°C° 0 mm 4 mps 758 mmHg 91%
    04:00 +25°C° 0 mm 4 mps 758 mmHg 91%
    05:00 +26°C° 0 mm 4 mps 758 mmHg 87%
    06:00 +27°C° 0 mm 4 mps 758 mmHg 84%
    07:00 +28°C° 0 mm 4 mps 759 mmHg 80%
    08:00 +30°C° 0 mm 4 mps 759 mmHg 73%
    09:00 +32°C° 0 mm 5 mps 759 mmHg 65%
    10:00 +34°C° 0 mm 5 mps 759 mmHg 57%
    11:00 +34°C° 0 mm 5 mps 759 mmHg 56%
    12:00 +35°C° 0 mm 6 mps 758 mmHg 56%
    13:00 +35°C° 0 mm 6 mps 758 mmHg 55%
    14:00 +35°C° 0 mm 6 mps 758 mmHg 58%
    15:00 +34°C° 0 mm 6 mps 757 mmHg 61%
    16:00 +33°C° 0 mm 5 mps 757 mmHg 64%
    17:00 +32°C° 0.1 mm 5 mps 757 mmHg 71%
    18:00 +29°C° 0.1 mm 5 mps 757 mmHg 78%
    19:00 +27°C° 0.1 mm 5 mps 757 mmHg 85%
    20:00 +27°C° 0 mm 5 mps 758 mmHg 85%
    21:00 +27°C° 0 mm 5 mps 758 mmHg 85%
    22:00 +26°C° 0 mm 5 mps 759 mmHg 86%
    23:00 +26°C° 0 mm 5 mps 759 mmHg 87%

    Tomorrow, 19 July, Friday

    Time Temperature Precipitation Wind Pressure Humidity
    00:00 +26°C° 0 mm 5 mps 758 mmHg 88%
    01:00 +26°C° 0 mm 5 mps 758 mmHg 89%
    02:00 +26°C° 0.1 mm 4 mps 758 mmHg 89%
    03:00 +26°C° 0.1 mm 4 mps 757 mmHg 90%
    04:00 +26°C° 0.1 mm 4 mps 757 mmHg 91%
    05:00 +27°C° 0.1 mm 4 mps 758 mmHg 89%
    06:00 +28°C° 0.1 mm 4 mps 758 mmHg 86%
    07:00 +29°C° 0.1 mm 4 mps 758 mmHg 84%
    08:00 +30°C° 0.1 mm 5 mps 759 mmHg 77%
    09:00 +33°C° 0.1 mm 5 mps 759 mmHg 71%
    10:00 +34°C° 0.1 mm 5 mps 759 mmHg 65%
    11:00 +35°C° 0 mm 6 mps 758 mmHg 61%
    12:00 +36°C° 0 mm 6 mps 758 mmHg 57%
    13:00 +38°C° 0 mm 6 mps 758 mmHg 52%
    14:00 +36°C° 0 mm 6 mps 757 mmHg 57%
    15:00 +35°C° 0 mm 6 mps 757 mmHg 61%
    16:00 +34°C° 0 mm 6 mps 756 mmHg 65%
    17:00 +32°C° 0 mm 6 mps 756 mmHg 74%
    18:00 +30°C° 0 mm 5 mps 757 mmHg 82%
    19:00 +28°C° 0 mm 5 mps 757 mmHg 91%
    20:00 +28°C° 0.2 mm 5 mps 758 mmHg 92%
    21:00 +27°C° 0.2 mm 5 mps 758 mmHg 93%
    22:00 +27°C° 0.2 mm 5 mps 758 mmHg 94%
    23:00 +27°C° 0.3 mm 5 mps 758 mmHg 94%

    Day after tomorrow, 20 July, Saturday

    Time Temperature Precipitation Wind Pressure Humidity
    00:00 +27°C° 0.3 mm 5 mps 758 mmHg 94%
    01:00 +27°C° 0.3 mm 5 mps 757 mmHg 95%
    02:00 +26°C° 0.3 mm 5 mps 757 mmHg 94%
    03:00 +26°C° 0.3 mm 4 mps 757 mmHg 93%
    04:00 +26°C° 0.3 mm 4 mps 756 mmHg 93%
    05:00 +27°C° 0 mm 4 mps 757 mmHg 90%
    06:00 +28°C° 0 mm 4 mps 757 mmHg 88%
    07:00 +29°C° 0 mm 4 mps 758 mmHg 86%
    08:00 +30°C° 0.1 mm 4 mps 758 mmHg 78%
    09:00 +33°C° 0.1 mm 4 mps 758 mmHg 70%
    10:00 +35°C° 0.1 mm 5 mps 758 mmHg 62%
    11:00 +34°C° 0.4 mm 5 mps 758 mmHg 65%
    12:00 +34°C° 0.4 mm 5 mps 757 mmHg 67%
    13:00 +34°C° 0.4 mm 5 mps 757 mmHg 70%
    14:00 +33°C° 0.3 mm 6 mps 756 mmHg 72%
    15:00 +33°C° 0.3 mm 6 mps 756 mmHg 75%
    16:00 +32°C° 0.3 mm 6 mps 756 mmHg 77%
    17:00 +30°C° 0.2 mm 6 mps 756 mmHg 82%
    18:00 +29°C° 0.2 mm 5 mps 756 mmHg 86%
    19:00 +27°C° 0.2 mm 5 mps 756 mmHg 91%
    20:00 +27°C° 0.4 mm 5 mps 757 mmHg 91%
    21:00 +27°C° 0.4 mm 5 mps 757 mmHg 91%
    22:00 +27°C° 0.4 mm 5 mps 758 mmHg 91%
    23:00 +27°C° 0.1 mm 4 mps 757 mmHg 91%

    21 July, Sunday

    Time Temperature Precipitation Wind Pressure Humidity
    00:00 +27°C° 0.1 mm 4 mps 757 mmHg 91%
    01:00 +27°C° 0.1 mm 4 mps 757 mmHg 92%
    02:00 +26°C° 0.1 mm 3 mps 757 mmHg 92%
    03:00 +26°C° 0.1 mm 3 mps 757 mmHg 93%
    04:00 +26°C° 0.1 mm 3 mps 757 mmHg 93%
    05:00 +27°C° 0 mm 3 mps 757 mmHg 90%
    06:00 +28°C° 0 mm 3 mps 757 mmHg 88%
    07:00 +29°C° 0 mm 3 mps 758 mmHg 85%
    08:00 +30°C° 0 mm 3 mps 758 mmHg 76%
    09:00 +33°C° 0 mm 4 mps 758 mmHg 67%
    10:00 +35°C° 0 mm 4 mps 758 mmHg 58%
    11:00 +35°C° 0.1 mm 5 mps 758 mmHg 58%
    12:00 +35°C° 0.1 mm 5 mps 757 mmHg 58%
    13:00 +36°C° 0.1 mm 5 mps 757 mmHg 57%
    14:00 +35°C° 0.1 mm 5 mps 756 mmHg 61%
    15:00 +34°C° 0.1 mm 5 mps 756 mmHg 65%
    16:00 +33°C° 0.1 mm 5 mps 756 mmHg 68%
    17:00 +32°C° 0 mm 5 mps 756 mmHg 76%
    18:00 +29°C° 0 mm 5 mps 756 mmHg 84%
    19:00 +27°C° 0 mm 4 mps 757 mmHg 92%
    20:00 +27°C° 0.1 mm 5 mps 757 mmHg 93%
    21:00 +27°C° 0.1 mm 5 mps 757 mmHg 93%
    22:00 +26°C° 0.1 mm 5 mps 757 mmHg 94%
    23:00 +26°C° 0.2 mm 5 mps 757 mmHg 94%

    22 July, Monday

    Time Temperature Precipitation Wind Pressure Humidity
    00:00 +26°C° 0.2 mm 4 mps 757 mmHg 94%
    01:00 +26°C° 0.2 mm 4 mps 756 mmHg 95%
    02:00 +26°C° 0.4 mm 4 mps 756 mmHg 94%
    03:00 +25°C° 0.4 mm 4 mps 756 mmHg 93%
    04:00 +25°C° 0.4 mm 4 mps 756 mmHg 93%
    05:00 +26°C° 0.3 mm 4 mps 757 mmHg 90%
    06:00 +27°C° 0.3 mm 4 mps 757 mmHg 87%
    07:00 +28°C° 0.3 mm 4 mps 757 mmHg 83%
    08:00 +30°C° 0.1 mm 4 mps 757 mmHg 74%
    09:00 +32°C° 0.1 mm 4 mps 758 mmHg 66%
    10:00 +34°C° 0.1 mm 4 mps 758 mmHg 57%
    11:00 +35°C° 0 mm 4 mps 758 mmHg 56%
    12:00 +35°C° 0 mm 5 mps 757 mmHg 56%
    13:00 +35°C° 0 mm 5 mps 757 mmHg 55%
    14:00 +34°C° 0.1 mm 5 mps 757 mmHg 60%
    15:00 +33°C° 0.1 mm 6 mps 756 mmHg 64%
    16:00 +32°C° 0.1 mm 6 mps 756 mmHg 69%
    17:00 +30°C° 0 mm 5 mps 756 mmHg 77%
    18:00 +28°C° 0 mm 5 mps 757 mmHg 85%
    19:00 +26°C° 0 mm 5 mps 757 mmHg 93%
    20:00 +26°C° 0 mm 5 mps 758 mmHg 93%
    21:00 +26°C° 0 mm 5 mps 758 mmHg 92%
    22:00 +26°C° 0 mm 5 mps 759 mmHg 91%
    23:00 +26°C° 0.1 mm 4 mps 758 mmHg 91%

    23 July, Tuesday

    Time Temperature Precipitation Wind Pressure Humidity
    00:00 +25°C° 0.1 mm 4 mps 758 mmHg 91%
    01:00 +25°C° 0.1 mm 4 mps 758 mmHg 91%
    02:00 +25°C° 0.1 mm 3 mps 757 mmHg 92%
    03:00 +25°C° 0.1 mm 3 mps 757 mmHg 92%
    04:00 +25°C° 0.1 mm 3 mps 757 mmHg 92%
    05:00 +26°C° 0 mm 3 mps 757 mmHg 89%
    06:00 +27°C° 0 mm 3 mps 758 mmHg 86%
    07:00 +28°C° 0 mm 3 mps 758 mmHg 83%
    08:00 +29°C° 0.2 mm 3 mps 758 mmHg 77%
    09:00 +32°C° 0.2 mm 4 mps 758 mmHg 72%
    10:00 +33°C° 0.2 mm 5 mps 758 mmHg 67%
    11:00 +33°C° 0.5 mm 5 mps 758 mmHg 68%
    12:00 +33°C° 0.5 mm 5 mps 758 mmHg 69%
    13:00 +33°C° 0.5 mm 5 mps 758 mmHg 71%
    14:00 +33°C° 0.3 mm 5 mps 757 mmHg 72%
    15:00 +33°C° 0.3 mm 4 mps 757 mmHg 73%
    16:00 +32°C° 0.3 mm 4 mps 757 mmHg 74%
    17:00 +30°C° 0.2 mm 4 mps 757 mmHg 80%
    18:00 +28°C° 0.2 mm 4 mps 758 mmHg 86%
    19:00 +27°C° 0.2 mm 5 mps 758 mmHg 92%
    20:00 +27°C° 0 mm 4 mps 759 mmHg 93%
    21:00 +26°C° 0 mm 4 mps 759 mmHg 93%
    22:00 +26°C° 0 mm 4 mps 759 mmHg 94%
    23:00 +26°C° 0.1 mm 4 mps 759 mmHg 93%
    Show more